[[{"header":{"parameterUnit":"m.s-1","parameterCategory":1,"la1":30.2991,"la2":30.254,"lo1":-89.0895,"lo2":-89.0444,"dy":0.0017,"dx":0.0017,"nx":28,"ny":28,"refTime":"2024-07-16T09:00:00:Z","depth":0,"parameterNumber":2,"parameterNumberName":"U-component_of_WINDS"},"data":[0,0,0,0,0,0,0,0,0,0,0,0,0,0,0,0,0,0,0,0,0,0,0,0,0,0,0,0,0,0,0,0,0,0,0,0,0,0,0,0,0,0,0,0,0,0,0,0,0,0,0,0,0,0,0,0,0,0,1.5737,1.5737,0,1.5795,1.5796,1.5797,1.5789,1.5788,1.5787,1.5787,1.5845,1.5848,1.585,0,0,0,0,0,0,0,0,0,0,0,0,0,1.5615,1.5618,1.5737,1.5737,1.5738,1.5795,1.5796,1.5797,1.5789,1.5788,1.5787,1.5786,1.5844,1.5847,1.585,0,0,0,0,0,0,0,0,0,0,0,0,0,1.567,1.5618,1.5737,1.5741,1.5742,1.5795,1.5796,1.5797,1.579,1.5788,1.5787,1.5786,1.5843,1.5847,1.5851,1.5902,0,0,1.5862,1.5863,0,0,0,0,0,0,0,0,1.5667,1.5675,1.574,1.5741,1.5742,1.5784,1.5775,1.5832,1.579,1.5772,1.5786,1.5785,1.5826,1.5831,1.5845,1.5904,1.5907,1.5862,1.5864,1.5866,1.5867,0,0,0,0,0,0,0,1.5664,1.5672,1.576,1.5741,1.5742,1.574,1.5746,1.5786,1.5806,1.5773,1.5773,1.578,1.5826,1.5841,1.5846,1.5908,1.5862,1.5865,1.5868,1.5869,1.6009,1.6011,0,0,0,0,0,0,1.5659,1.5669,1.5758,1.5762,1.5701,1.5743,1.575,1.5772,1.5806,1.5809,1.5781,1.5779,1.5836,1.5842,1.5848,1.5908,1.5866,1.5869,1.5871,1.6008,1.601,1.6011,0,0,0,0,0,0,1.5656,1.5667,1.5756,1.5715,1.5726,1.5747,1.5771,1.5774,1.5789,1.5811,1.5815,1.5793,1.5835,1.5843,1.5888,1.591,1.5871,1.5874,1.6006,1.6008,1.601,1.603,0,0,0,0,0,0,1.5653,1.5666,1.5687,1.5716,1.5729,1.5795,1.5773,1.5776,1.5795,1.5794,1.5824,1.5827,1.5834,1.5882,1.5892,1.5915,1.5877,1.6004,1.6007,1.601,1.6028,1.6033,1.6037,0,0,0,0,0,1.5649,1.569,1.5688,1.5698,1.5755,1.5797,1.5804,1.5812,1.5797,1.5817,1.5831,1.5826,1.5907,1.5887,1.5897,1.5922,1.6003,1.6006,1.601,1.6025,1.6032,1.6037,0,0,0,0,0,0,1.5663,1.5694,1.5692,1.5744,1.5768,1.5795,1.5821,1.5819,1.5847,1.5844,1.5852,1.5859,1.5904,1.5917,1.5895,1.5972,1.5952,1.5958,1.5961,1.5967,1.5972,1.5967,1.588,0,0,0,0,0,1.5672,1.5704,1.573,1.5773,1.5785,1.5801,1.582,1.5823,1.5848,1.5858,1.5876,1.5899,1.5929,1.5949,1.5979,1.603,1.6035,1.6051,1.6056,1.606,1.6064,1.609,1.6097,1.6023,1.6023,1.6022,0,0,1.5691,1.5712,1.5732,1.5776,1.5795,1.5827,1.581,1.5845,1.5868,1.5863,1.5906,1.592,1.5946,1.5994,1.6016,1.6007,1.6086,1.6064,1.6067,1.607,1.6094,1.6101,1.6107,1.6025,1.6024,1.6024,0,0,1.5743,1.5763,1.58,1.5819,1.5848,1.5858,1.5866,1.5894,1.5903,1.5946,1.5943,1.597,1.6023,1.6041,1.6057,1.6113,1.6109,1.6123,1.6148,1.6173,1.6178,1.6184,1.6202,1.6208,1.6127,1.6127,1.6127,0,1.5763,1.5812,1.582,1.5855,1.5873,1.587,1.5907,1.5925,1.5961,1.5974,1.5963,1.6028,1.6046,1.6096,1.611,1.6124,1.6132,1.6119,1.6177,1.6182,1.6187,1.6204,1.6211,1.6129,1.6128,1.6128,1.6128,0,1.5834,1.5868,1.5895,1.5929,1.5951,1.5987,1.5999,1.602,1.6021,1.6032,1.6074,1.6096,1.6128,1.614,1.6143,1.6191,1.6184,1.6175,1.6156,1.6196,1.6212,1.6219,1.6131,1.613,1.613,1.6129,0,0,1.5897,1.5934,1.5944,1.5959,1.5989,1.6015,1.6049,1.6081,1.6098,1.6123,1.6151,1.6194,1.6186,1.6204,1.6208,1.623,1.627,1.6218,1.6219,1.6226,1.6322,1.6327,1.6335,1.6268,1.6269,1.627,1.6319,0,1.595,1.6012,1.6019,1.6073,1.6103,1.61,1.613,1.6151,1.6161,1.6187,1.6198,1.6228,1.6216,1.6226,1.6248,1.6261,1.6289,1.6257,1.6292,1.6293,1.6284,1.6344,1.635,1.6396,1.6326,1.6327,1.6328,0,1.602,1.6046,1.6104,1.6128,1.614,1.6167,1.6196,1.6221,1.6244,1.625,1.6269,1.627,1.6304,1.6284,1.633,1.6308,1.6322,1.6331,1.6332,1.6335,1.6312,1.6346,1.6411,1.6417,1.6338,1.6337,1.6336,0,1.6057,1.6107,1.6147,1.616,1.619,1.6209,1.6222,1.6243,1.6261,1.6286,1.6297,1.6325,1.634,1.6362,1.6369,1.6354,1.6414,1.6395,1.6418,1.6418,1.6431,1.6429,1.6496,1.6442,1.6442,1.6442,1.6442,0,1.6115,1.615,1.6164,1.6189,1.6227,1.6234,1.6271,1.6284,1.6302,1.6328,1.6327,1.6351,1.636,1.6385,1.6392,1.6427,1.6435,1.6439,1.644,1.6439,1.6438,1.6448,1.6444,1.6444,1.6443,1.6443,1.6443,0,1.6163,1.6175,1.6218,1.6242,1.6249,1.6275,1.6295,1.6318,1.6328,1.636,1.6368,1.6383,1.6412,1.6422,1.6458,1.6461,1.6503,1.6502,1.6495,1.6495,1.6517,1.6514,1.6591,1.6601,1.6542,1.6542,1.6543,0,1.6199,1.6225,1.6252,1.6269,1.6283,1.6311,1.6329,1.6336,1.6354,1.6381,1.64,1.6429,1.6453,1.65,1.6513,1.6539,1.6538,1.6563,1.6542,1.6539,1.6536,1.6534,1.6536,1.6567,1.6567,1.6568,1.6568,0,1.626,1.6264,1.629,1.6317,1.6338,1.6361,1.6382,1.6396,1.6406,1.6426,1.6456,1.6474,1.651,1.6538,1.6565,1.6577,1.6574,1.6575,1.6581,1.658,1.6574,1.6575,1.6504,1.6573,1.6573,1.6572,1.6572,1.6572,1.6302,1.6324,1.6346,1.6374,1.6391,1.641,1.6432,1.6444,1.6469,1.6499,1.6501,1.6533,1.6553,1.6588,1.6602,1.6626,1.6618,1.6628,1.6631,1.6633,1.6633,1.6571,1.6631,1.6631,1.6631,1.663,1.663,0,1.6361,1.6375,1.6401,1.643,1.6452,1.6447,1.647,1.6488,1.6516,1.6535,1.6558,1.6591,1.6617,1.6632,1.6658,1.6675,1.6674,1.6681,1.6679,1.6682,1.6639,1.663,1.6681,1.6681,1.6681,1.6681,1.6681,1.6681,1.6395,1.6432,1.6438,1.6482,1.6495,1.6526,1.6539,1.6556,1.6571,1.6608,1.663,1.664,1.6657,1.6684,1.6707,1.6711,1.672,1.6728,1.673,1.669,1.6685,1.668,1.6671,1.673,1.673,1.6771,1.6771,1.6771]},{"header":{"parameterUnit":"m.s-1","parameterCategory":1,"la1":30.2991,"la2":30.254,"lo1":-89.0895,"lo2":-89.0444,"dy":0.0017,"dx":0.0017,"nx":28,"ny":28,"refTime":"2024-07-16T09:00:00:Z","depth":0,"parameterNumber":3,"parameterNumberName":"V-component_of_WINDS"},"data":[0,0,0,0,0,0,0,0,0,0,0,0,0,0,0,0,0,0,0,0,0,0,0,0,0,0,0,0,0,0,0,0,0,0,0,0,0,0,0,0,0,0,0,0,0,0,0,0,0,0,0,0,0,0,0,0,0,0,4.1446,4.1446,0,4.1472,4.1472,4.1472,4.1418,4.1416,4.1414,4.1413,4.1436,4.1438,4.144,0,0,0,0,0,0,0,0,0,0,0,0,0,4.1346,4.1348,4.1446,4.1446,4.1447,4.1472,4.1472,4.1472,4.1418,4.1416,4.1414,4.1412,4.1435,4.1437,4.144,0,0,0,0,0,0,0,0,0,0,0,0,0,4.1382,4.1349,4.1446,4.1423,4.1421,4.1471,4.1472,4.1472,4.1419,4.1416,4.1413,4.1411,4.1434,4.1437,4.144,4.1513,0,0,4.1451,4.1452,0,0,0,0,0,0,0,0,4.138,4.1386,4.1426,4.1425,4.1423,4.1439,4.1445,4.1486,4.1419,4.142,4.1413,4.141,4.1439,4.1441,4.1452,4.1515,4.1516,4.1451,4.1453,4.1454,4.1455,0,0,0,0,0,0,0,4.1378,4.1384,4.1456,4.1427,4.1425,4.141,4.1412,4.1452,4.1443,4.1419,4.1415,4.1419,4.1437,4.1449,4.1452,4.1516,4.1451,4.1454,4.1456,4.1457,4.1638,4.164,0,0,0,0,0,0,4.1379,4.1383,4.1455,4.1457,4.1395,4.1414,4.1416,4.1436,4.1443,4.1441,4.1422,4.1417,4.1444,4.1448,4.1452,4.1537,4.1454,4.1458,4.1459,4.1635,4.1638,4.1641,0,0,0,0,0,0,4.1377,4.1386,4.1454,4.1419,4.1426,4.1418,4.1441,4.1438,4.145,4.1445,4.1442,4.1435,4.1442,4.1448,4.1498,4.1537,4.1459,4.1462,4.1631,4.1636,4.164,4.1707,0,0,0,0,0,0,4.1374,4.1385,4.1414,4.142,4.1429,4.1501,4.1444,4.1441,4.1456,4.145,4.1457,4.1455,4.1441,4.1494,4.1502,4.154,4.1465,4.1628,4.1633,4.1638,4.1701,4.1713,4.1723,0,0,0,0,0,4.1371,4.1432,4.1416,4.1425,4.1465,4.1504,4.1508,4.1491,4.1459,4.1487,4.1484,4.1455,4.1532,4.1499,4.1508,4.1548,4.1625,4.1632,4.1638,4.1696,4.1711,4.1723,0,0,0,0,0,0,4.143,4.1432,4.1415,4.148,4.1492,4.1494,4.1529,4.1507,4.1528,4.1521,4.1498,4.15,4.1554,4.1556,4.152,4.1618,4.1573,4.1581,4.1614,4.1628,4.1639,4.1636,4.1467,0,0,0,0,0,4.1451,4.1483,4.1483,4.154,4.1548,4.1538,4.1554,4.154,4.1551,4.1556,4.1556,4.1567,4.1593,4.1611,4.1635,4.1702,4.1701,4.1733,4.1744,4.1753,4.176,4.1793,4.1807,4.1662,4.1662,4.1662,0,0,4.1493,4.1499,4.1521,4.1552,4.156,4.1593,4.1542,4.1579,4.1603,4.1561,4.1608,4.1609,4.162,4.1678,4.1704,4.1682,4.18,4.1761,4.1768,4.177,4.1801,4.1815,4.1827,4.1666,4.1665,4.1665,0,0,4.1587,4.1596,4.1644,4.1653,4.1665,4.1658,4.167,4.1676,4.1675,4.1723,4.1691,4.1718,4.1765,4.1773,4.1783,4.188,4.1854,4.1889,4.1945,4.1978,4.1989,4.1999,4.2032,4.2044,4.1896,4.1896,4.1896,0,4.1638,4.1688,4.1671,4.171,4.1724,4.1688,4.1735,4.1744,4.1764,4.1774,4.1749,4.1805,4.181,4.1869,4.1893,4.1903,4.1914,4.1887,4.1989,4.1999,4.2008,4.2039,4.2051,4.19,4.19,4.1899,4.1899,0,4.1749,4.1784,4.1821,4.1841,4.1859,4.1903,4.189,4.191,4.1894,4.1889,4.1937,4.1942,4.1966,4.1979,4.1964,4.2036,4.2021,4.1993,4.1947,4.2026,4.2054,4.2066,4.1906,4.1904,4.1903,4.1902,0,0,4.1881,4.1891,4.1904,4.1913,4.1924,4.195,4.199,4.2014,4.2031,4.2046,4.2078,4.2118,4.2092,4.2104,4.2089,4.2118,4.2192,4.2086,4.2086,4.2104,4.227,4.229,4.2304,4.2176,4.2178,4.218,4.2268,0,4.1972,4.2043,4.2028,4.2097,4.2128,4.2094,4.2129,4.2139,4.2136,4.216,4.2155,4.2183,4.2148,4.2154,4.2182,4.2178,4.2225,4.2171,4.2204,4.2205,4.22,4.2319,4.234,4.2423,4.2279,4.2281,4.2283,0,4.2089,4.2109,4.2181,4.2186,4.2198,4.223,4.225,4.2275,4.2285,4.228,4.2293,4.2272,4.2311,4.2266,4.2318,4.2282,4.2294,4.2294,4.2297,4.2297,4.2247,4.2321,4.245,4.2461,4.23,4.2299,4.2298,0,4.2175,4.222,4.2268,4.2276,4.2284,4.2307,4.2311,4.2319,4.2334,4.2351,4.236,4.2382,4.2393,4.2409,4.2394,4.2364,4.2448,4.2402,4.2443,4.2444,4.2461,4.246,4.2591,4.2472,4.2472,4.2472,4.2472,0,4.2278,4.2323,4.2307,4.2336,4.2385,4.2367,4.2415,4.2415,4.2422,4.245,4.2422,4.2449,4.2429,4.2453,4.2442,4.2485,4.2491,4.2487,4.2483,4.2488,4.2489,4.2495,4.2488,4.2475,4.2475,4.2474,4.2473,0,4.2382,4.2373,4.2423,4.2427,4.2428,4.2464,4.2466,4.2493,4.2487,4.2523,4.253,4.2521,4.2548,4.2536,4.2564,4.2556,4.2612,4.2601,4.2608,4.2605,4.2646,4.2642,4.2785,4.2802,4.2674,4.2675,4.2676,0,4.2447,4.2481,4.2488,4.2505,4.2511,4.2539,4.2554,4.2538,4.2554,4.2568,4.2592,4.2618,4.2636,4.2681,4.2676,4.2697,4.2686,4.2735,4.2689,4.2693,4.2684,4.2682,4.2684,4.2743,4.2745,4.2746,4.2747,0,4.2563,4.2557,4.2581,4.2603,4.2622,4.2638,4.2652,4.2667,4.265,4.267,4.2698,4.2713,4.2742,4.2766,4.2785,4.2787,4.2764,4.2762,4.2772,4.2777,4.2779,4.2776,4.2631,4.2758,4.2757,4.2756,4.2755,4.2755,4.2648,4.2676,4.2685,4.2712,4.2721,4.2734,4.2759,4.2757,4.278,4.2803,4.2791,4.2823,4.2831,4.2853,4.2859,4.2883,4.2863,4.2879,4.2882,4.2886,4.2891,4.2777,4.2886,4.2886,4.2886,4.2886,4.2885,0,4.2762,4.2766,4.2791,4.2811,4.2831,4.2809,4.2823,4.2841,4.287,4.288,4.2899,4.293,4.2954,4.2951,4.2972,4.2992,4.2981,4.2998,4.2995,4.2996,4.2908,4.2896,4.3006,4.3006,4.3006,4.3006,4.3006,4.3005,4.2823,4.2868,4.2863,4.2912,4.2915,4.2947,4.2956,4.2968,4.2975,4.3012,4.3032,4.303,4.3034,4.3056,4.3076,4.3074,4.3082,4.3102,4.3097,4.3014,4.3002,4.2991,4.2979,4.3105,4.3105,4.3182,4.3183,4.3184]}]]